Regional Weather Roundup
Issued by NWS

Home | Current Version | Previous Version | Text Only | Print | Product List | Glossary Off
Versions: 1 2 3 4 5 6 7 8 9 10 11 12 13 14 15 16 17 18 19 20 21 22 23 24 25 26 27 28 29 30 31 32 33 34 35 36 37 38 39 40 41 42 43 44 45 46 47 48 49 50

000
ASUS45 KABQ 020401
RWRNM
WEATHER ROUNDUP FOR NEW MEXICO
NATIONAL WEATHER SERVICE ALBUQUERQUE NM
1000 PM MDT WED APR 01 2015

NOTE: "FAIR" MEANS FEW OR NO CLOUDS BELOW 12,000 FEET AGL WITH NO
       SIGNIFICANT WEATHER OR OBSTRUCTIONS TO VISION.

      THIS PRODUCT IS RELEASED AS TWO VERSIONS.  ONE VERSION NEAR
      THE TOP OF THE HOUR CONTAINING PRELIMINARY DATA FROM ALBUQUERQUE
      AND OTHER STATIONS.  A FINAL VERSION WITH ADDITIONAL DATA IS
      ISSUED ABOUT 10 MINUTES AFTER THE HOUR.

NMZ501-503-504-510>518-020500-
NORTHWEST PLATEAU/NORTHCENTRAL MOUNTAINS

CITY           SKY/WX    TMP DP  RH WIND       PRES   REMARKS
FARMINGTON     CLEAR     56  15  20 SW5       29.87R
SANTA FE       PTCLDY    50  19  29 NE8       29.94S
TAOS           PTCLDY    46  19  34 E8        29.97S
ANGEL FIRE     MOCLDY    40  25  54 CALM      30.04R

$$
NMZ402-403-502-505>509-020500-
WESTCENTRAL MOUNTAINS/SOUTHWEST MOUNTAINS

CITY           SKY/WX    TMP DP  RH WIND       PRES   REMARKS
GALLUP         PTCLDY    56  18  22 SW13      29.99R
GRANTS         CLEAR     51  20  29 W8        30.01S

$$
NMZ407-409-411-412-020500-
SOUTHERN DESERTS

CITY           SKY/WX    TMP DP  RH WIND       PRES   REMARKS
DEMING         CLEAR     66  28  24 SW10      29.95R
HOLLOMAN AFB   CLEAR     67  28  22 SW10      29.90R
ALAMOGORDO     CLEAR     63  28  27 S7        29.93R
T OR C         CLEAR     65  27  23 SW3       29.94R

$$
NMZ519>523-020500-
CENTRAL VALLEYS/CENTRAL HIGHLANDS

CITY           SKY/WX    TMP DP  RH WIND       PRES   REMARKS
ALBUQUERQUE    PTCLDY    62  21  20 W6        29.92R
DOUBLE EAGLE   CLEAR     54  21  28 SW13      29.94S
MORIARTY ARPT  FAIR      58  18  20 W10       29.96S
CLINES CORNERS PTCLDY    52  20  28 W13       29.98R
BELEN          FAIR      58  19  21 W9        29.93R
SOCORRO        NOT AVBL

$$
NMZ524>526-539-540-020500-
SOUTHCENTRAL MOUNTAINS

CITY           SKY/WX    TMP DP  RH WIND       PRES   REMARKS
RUIDOSO        NOT AVBL

$$
NMZ527>531-020500-
NORTHEAST HIGHLANDS/NORTHEAST PLAINS

CITY           SKY/WX    TMP DP  RH WIND       PRES   REMARKS
LAS VEGAS      PTCLDY    52  19  27 SW6       29.96R
RATON          CLEAR     50  19  29 S7        29.88R
CLAYTON        CLEAR     62  22  21 W15       29.80R

$$
NMZ532>537-020500-
EASTCENTRAL PLAINS

CITY           SKY/WX    TMP DP  RH WIND       PRES   REMARKS
TUCUMCARI      CLEAR     62  24  23 W10       29.79R
CANNON AFB     PTCLDY    66  26  22 W13       29.84R
CLOVIS AIRPORT CLEAR     54  28  37 SW12      29.84R

$$
NMZ028-029-538-020500-
SOUTHEAST PLAINS

CITY           SKY/WX    TMP DP  RH WIND       PRES   REMARKS
ROSWELL        CLEAR     64  30  27 W12       29.84R
ARTESIA        CLEAR     66  32  28 SW14      29.86R
CARLSBAD       CLEAR     61  34  36 SW12      29.85R
HOBBS          CLEAR     63  32  31 SW8       29.87R


$$



USA.gov is the U.S. government's official web portal to all federal, state and local government web resources and services.